Regional Weather Roundup
Issued by NWS

Home | Current Version | Previous Version | Graphics & Text | Print | Product List | Glossary On
Versions: 1 2 3 4 5 6 7 8 9 10 11 12 13 14 15 16 17 18 19 20 21 22 23 24 25 26 27 28 29 30 31 32 33 34 35 36 37 38 39 40 41 42 43 44 45 46 47 48 49 50
000
ASUS43 KOAX 290302
RWRNE

WEATHER ROUNDUP FOR NEBRASKA
NATIONAL WEATHER SERVICE OMAHA NE
1000 PM CDT THU JUL 28 2016

NOTES: SATELLITE DATA IS BEING USED TO AUGMENT CLOUD COVER ABOVE
       12000 FEET.
       "FAIR" INDICATES FEW OR NO CLOUDS BELOW 12,000 FEET WITH NO
       SIGNIFICANT WEATHER AND/OR OBSTRUCTIONS TO VISIBILITY.

  * THESE STATIONS DO NOT REPORT WEATHER SUCH AS RAIN...SNOW OR FOG.

NEZ001>004-019>022-054>056-290400-
NEBRASKA PANHANDLE

CITY           SKY/WX    TMP DP  RH WIND       PRES   REMARKS
SCOTTSBLUFF    CLOUDY    70  61  73 E7        30.15S
ALLIANCE       CLEAR     64  58  80 E3        30.15R
CHADRON        CLEAR     68  59  73 E8        30.13R
KIMBALL        CLEAR     64  56  75 E8        30.19F
SIDNEY         CLEAR     66  58  75 E9        30.19R
$$

NEZ057>060-069>072-079>082-290400-
SOUTHWEST NEBRASKA

CITY           SKY/WX    TMP DP  RH WIND       PRES   REMARKS
NORTH PLATTE   CLEAR     64  62  93 CALM      30.11R
IMPERIAL       CLOUDY    66  62  87 E9        30.13S
LEXINGTON      CLEAR     66  63  89 SW3       30.09R
MCCOOK         PTCLDY    66  61  84 N7        30.10R
OGALLALA       CLEAR     68  63  83 CALM      30.14R
$$

NEZ005>010-023>029-035>040-094-290400-
NORTH CENTRAL NEBRASKA

CITY           SKY/WX    TMP DP  RH WIND       PRES   REMARKS
VALENTINE      MOCLDY    62  60  93 NE6       30.12R
AINSWORTH      LGT RAIN  63  63  99 N5        30.13R
BROKEN BOW     MOCLDY    68  66  93 N7        30.09R
O`NEILL        LGT RAIN  69  64  86 W7        30.09R
ORD            PTCLDY    70  64  81 CALM      30.06R
THEDFORD       CLEAR     67  62  84 NE13G20   30.12R
$$

NEZ041-046>049-061>064-073>077-083>087-290400-
SOUTH CENTRAL NEBRASKA

CITY           SKY/WX    TMP DP  RH WIND       PRES   REMARKS
GRAND ISLAND   PTCLDY    69  66  90 NE3       30.06R
AURORA         MOCLDY    68  67  96 NE5       30.05R
HASTINGS       PTCLDY    69  65  86 N3        30.07R
HEBRON         MOCLDY    73  67  82 NE7       30.02R
HOLDREGE       CLEAR     67  65  94 N3        30.08R
KEARNEY *      MOCLDY    70  10  10 CALM      30.09R
YORK           CLOUDY    68  63  83 NE6       30.05R
$$

NEZ011>018-030>034-042>045-290400-
NORTHEAST NEBRASKA

CITY           SKY/WX    TMP DP  RH WIND       PRES   REMARKS
NORFOLK        CLOUDY    72  61  68 NE6       30.04R
ALBION         CLOUDY    69  64  84 CALM      30.06R
BLAIR          CLOUDY    72  65  80 CALM      30.02R
FREMONT        CLOUDY    74  62  67 E3        30.02R
TEKAMAH        MOCLDY    73  64  73 NE5       30.01R
WAYNE          CLOUDY    66  64  91 NE5       30.04R
$$

NEZ050>053-065>068-078-088>093-290400-
SOUTHEAST NEBRASKA

CITY           SKY/WX    TMP DP  RH WIND       PRES   REMARKS
LINCOLN        CLOUDY    73  64  73 N6        30.03R
OMAHA EPPLEY   CLOUDY    75  62  64 NE7       30.01R
BEATRICE       CLOUDY    75  64  69 NE8       30.01R
FALLS CITY     MOCLDY    76  69  79 E3        29.98R
NEBRASKA CITY  CLOUDY    73  65  75 NE7       30.01R
PLATTSMOUTH    CLOUDY    73  64  75 NE3       30.02R
$$

NEZ044-045-051>053-067-290400-
OMAHA AREA

CITY           SKY/WX    TMP DP  RH WIND       PRES   REMARKS
OMAHA EPPLEY   CLOUDY    75  62  64 NE7       30.01R
BLAIR          CLOUDY    72  65  80 CALM      30.02R
FREMONT        CLOUDY    74  62  67 E3        30.02R
MILLARD        CLOUDY    76  62  61 E3        30.01R
PLATTSMOUTH    CLOUDY    73  64  75 NE3       30.02R
WAHOO          FAIR      73  65  76 CALM      30.02R
$$




USA.gov is the U.S. government's official web portal to all federal, state and local government web resources and services.